owner,sensor,date,latitude,longitude,air_pressure(mBar),qcFlag 
COMPS,ioos:station:USF.COMPS:C13:1,2013-12-05T15:05:00Z,26.0630,-83.0730,1019.22,1111122 
COMPS,ioos:station:USF.COMPS:C13:1,2013-12-05T15:35:00Z,26.0630,-83.0730,1019.22,1111122 
COMPS,ioos:station:USF.COMPS:C13:1,2013-12-05T16:05:00Z,26.0630,-83.0730,1019.22,1111122 
COMPS,ioos:station:USF.COMPS:C13:1,2013-12-05T16:35:00Z,26.0630,-83.0730,1019.15,1111122 
COMPS,ioos:station:USF.COMPS:C13:1,2013-12-05T17:05:00Z,26.0630,-83.0730,1018.9,1111122 
COMPS,ioos:station:USF.COMPS:C13:1,2013-12-05T17:35:00Z,26.0630,-83.0730,1018.43,1111122 
COMPS,ioos:station:USF.COMPS:C13:1,2013-12-05T18:05:00Z,26.0630,-83.0730,1017.91,1111122 
COMPS,ioos:station:USF.COMPS:C13:1,2013-12-05T18:35:00Z,26.0630,-83.0730,1017.4,1111122 
COMPS,ioos:station:USF.COMPS:C13:1,2013-12-05T19:05:00Z,26.0630,-83.0730,1016.99,1111122 
COMPS,ioos:station:USF.COMPS:C13:1,2013-12-05T19:35:00Z,26.0630,-83.0730,1016.82,1111122 
COMPS,ioos:station:USF.COMPS:C13:1,2013-12-05T20:05:00Z,26.0630,-83.0730,1016.69,1111122 
COMPS,ioos:station:USF.COMPS:C13:1,2013-12-05T20:35:00Z,26.0630,-83.0730,1016.66,1111122 
COMPS,ioos:station:USF.COMPS:C13:1,2013-12-05T21:05:00Z,26.0630,-83.0730,1016.53,1111122 
COMPS,ioos:station:USF.COMPS:C13:1,2013-12-05T21:35:00Z,26.0630,-83.0730,1016.53,1111122 
COMPS,ioos:station:USF.COMPS:C13:1,2013-12-05T22:05:00Z,26.0630,-83.0730,1016.83,1111122 
COMPS,ioos:station:USF.COMPS:C13:1,2013-12-05T22:35:00Z,26.0630,-83.0730,1016.9,1111122 
COMPS,ioos:station:USF.COMPS:C13:1,2013-12-05T23:05:00Z,26.0630,-83.0730,1016.92,1111122 
COMPS,ioos:station:USF.COMPS:C13:1,2013-12-05T23:35:00Z,26.0630,-83.0730,1017.08,1111122 
COMPS,ioos:station:USF.COMPS:C13:1,2013-12-06T00:05:00Z,26.0630,-83.0730,1017.29,1111122 
COMPS,ioos:station:USF.COMPS:C13:1,2013-12-06T00:35:00Z,26.0630,-83.0730,1017.39,1111122 
COMPS,ioos:station:USF.COMPS:C13:1,2013-12-06T01:05:00Z,26.0630,-83.0730,1017.6,1111122 
COMPS,ioos:station:USF.COMPS:C13:1,2013-12-06T01:35:00Z,26.0630,-83.0730,1017.74,1111122 
COMPS,ioos:station:USF.COMPS:C13:1,2013-12-06T02:05:00Z,26.0630,-83.0730,1017.88,1111122 
COMPS,ioos:station:USF.COMPS:C13:1,2013-12-06T02:35:00Z,26.0630,-83.0730,1018.0,1111122 
COMPS,ioos:station:USF.COMPS:C13:1,2013-12-06T03:05:00Z,26.0630,-83.0730,1018.03,1111122 
COMPS,ioos:station:USF.COMPS:C13:1,2013-12-06T03:35:00Z,26.0630,-83.0730,1018.16,1111122 
COMPS,ioos:station:USF.COMPS:C13:1,2013-12-06T04:05:00Z,26.0630,-83.0730,1017.73,1111122 
COMPS,ioos:station:USF.COMPS:C13:1,2013-12-06T04:35:00Z,26.0630,-83.0730,1017.65,1111122 
COMPS,ioos:station:USF.COMPS:C13:1,2013-12-06T05:05:00Z,26.0630,-83.0730,1017.33,1111122 
COMPS,ioos:station:USF.COMPS:C13:1,2013-12-06T05:35:00Z,26.0630,-83.0730,1017.27,1111122 
COMPS,ioos:station:USF.COMPS:C13:1,2013-12-06T06:05:00Z,26.0630,-83.0730,1017.26,1111122 
COMPS,ioos:station:USF.COMPS:C13:1,2013-12-06T06:35:00Z,26.0630,-83.0730,1017.17,1111122 
COMPS,ioos:station:USF.COMPS:C13:1,2013-12-06T07:05:00Z,26.0630,-83.0730,1016.91,1111122 
COMPS,ioos:station:USF.COMPS:C13:1,2013-12-06T07:35:00Z,26.0630,-83.0730,1016.91,1111122 
COMPS,ioos:station:USF.COMPS:C13:1,2013-12-06T08:05:00Z,26.0630,-83.0730,1016.89,1111122 
COMPS,ioos:station:USF.COMPS:C13:1,2013-12-06T08:35:00Z,26.0630,-83.0730,1016.88,1111122 
COMPS,ioos:station:USF.COMPS:C13:1,2013-12-06T09:05:00Z,26.0630,-83.0730,1016.87,1111122 
COMPS,ioos:station:USF.COMPS:C13:1,2013-12-06T09:35:00Z,26.0630,-83.0730,1016.89,1111122 
COMPS,ioos:station:USF.COMPS:C13:1,2013-12-06T10:05:00Z,26.0630,-83.0730,1016.89,1111122 
COMPS,ioos:station:USF.COMPS:C13:1,2013-12-06T10:35:00Z,26.0630,-83.0730,1017.23,1111122 
COMPS,ioos:station:USF.COMPS:C13:1,2013-12-06T11:05:00Z,26.0630,-83.0730,1017.58,1111122 
COMPS,ioos:station:USF.COMPS:C13:1,2013-12-06T11:35:00Z,26.0630,-83.0730,1017.74,1111122 
COMPS,ioos:station:USF.COMPS:C13:1,2013-12-06T12:05:00Z,26.0630,-83.0730,1018.13,1111122 
COMPS,ioos:station:USF.COMPS:C13:1,2013-12-06T12:35:00Z,26.0630,-83.0730,1018.31,1111122 
COMPS,ioos:station:USF.COMPS:C13:1,2013-12-06T13:05:00Z,26.0630,-83.0730,1018.67,1111122 
COMPS,ioos:station:USF.COMPS:C13:1,2013-12-06T13:35:00Z,26.0630,-83.0730,1018.81,1111122 
COMPS,ioos:station:USF.COMPS:C13:1,2013-12-06T14:05:00Z,26.0630,-83.0730,1019.21,1111122 
COMPS,ioos:station:USF.COMPS:C13:1,2013-12-06T14:35:00Z,26.0630,-83.0730,1019.65,1111122 
COMPS,ioos:station:USF.COMPS:C13:1,2013-12-06T15:05:00Z,26.0630,-83.0730,1019.75,1111122 
COMPS,ioos:station:USF.COMPS:C13:1,2013-12-06T15:35:00Z,26.0630,-83.0730,1019.6,1111122 
COMPS,ioos:station:USF.COMPS:C13:1,2013-12-06T16:05:00Z,26.0630,-83.0730,1019.59,1111122 
COMPS,ioos:station:USF.COMPS:C13:1,2013-12-06T16:35:00Z,26.0630,-83.0730,1019.24,1111122 
COMPS,ioos:station:USF.COMPS:C13:1,2013-12-06T17:05:00Z,26.0630,-83.0730,1018.77,1111122 
COMPS,ioos:station:USF.COMPS:C13:1,2013-12-06T17:35:00Z,26.0630,-83.0730,1018.24,1111122 
COMPS,ioos:station:USF.COMPS:C13:1,2013-12-06T18:05:00Z,26.0630,-83.0730,1017.85,1111122 
COMPS,ioos:station:USF.COMPS:C13:1,2013-12-06T18:35:00Z,26.0630,-83.0730,1017.53,1111122 
COMPS,ioos:station:USF.COMPS:C13:1,2013-12-06T19:05:00Z,26.0630,-83.0730,1017.22,1111122 
COMPS,ioos:station:USF.COMPS:C13:1,2013-12-06T19:35:00Z,26.0630,-83.0730,1017.2,1111122 
COMPS,ioos:station:USF.COMPS:C13:1,2013-12-06T20:05:00Z,26.0630,-83.0730,1017.15,1111122 
COMPS,ioos:station:USF.COMPS:C13:1,2013-12-06T20:35:00Z,26.0630,-83.0730,1017.11,1111122 
COMPS,ioos:station:USF.COMPS:C13:1,2013-12-06T21:05:00Z,26.0630,-83.0730,1017.32,1111122 
COMPS,ioos:station:USF.COMPS:C13:1,2013-12-06T21:35:00Z,26.0630,-83.0730,1017.43,1111122 
COMPS,ioos:station:USF.COMPS:C13:1,2013-12-06T22:05:00Z,26.0630,-83.0730,1017.67,1111122 
COMPS,ioos:station:USF.COMPS:C13:1,2013-12-06T22:35:00Z,26.0630,-83.0730,1018.04,1111122 
COMPS,ioos:station:USF.COMPS:C13:1,2013-12-06T23:05:00Z,26.0630,-83.0730,1018.28,1111122 
COMPS,ioos:station:USF.COMPS:C13:1,2013-12-06T23:35:00Z,26.0630,-83.0730,1018.67,1111122 
COMPS,ioos:station:USF.COMPS:C13:1,2013-12-07T00:05:00Z,26.0630,-83.0730,1018.55,1111122 
COMPS,ioos:station:USF.COMPS:C13:1,2013-12-07T00:35:00Z,26.0630,-83.0730,1018.81,1111122 
COMPS,ioos:station:USF.COMPS:C13:1,2013-12-07T01:05:00Z,26.0630,-83.0730,1018.81,1111122 
COMPS,ioos:station:USF.COMPS:C13:1,2013-12-07T01:35:00Z,26.0630,-83.0730,1018.85,1111122 
COMPS,ioos:station:USF.COMPS:C13:1,2013-12-07T02:05:00Z,26.0630,-83.0730,1019.35,1111122 
COMPS,ioos:station:USF.COMPS:C13:1,2013-12-07T02:35:00Z,26.0630,-83.0730,1019.56,1111122 
COMPS,ioos:station:USF.COMPS:C13:1,2013-12-07T03:05:00Z,26.0630,-83.0730,1019.6,1111122 
COMPS,ioos:station:USF.COMPS:C13:1,2013-12-07T03:35:00Z,26.0630,-83.0730,1020.01,1111122 
COMPS,ioos:station:USF.COMPS:C13:1,2013-12-07T04:05:00Z,26.0630,-83.0730,1020.01,1111122 
COMPS,ioos:station:USF.COMPS:C13:1,2013-12-07T04:35:00Z,26.0630,-83.0730,1019.95,1111122 
COMPS,ioos:station:USF.COMPS:C13:1,2013-12-07T05:05:00Z,26.0630,-83.0730,1019.62,1111122 
COMPS,ioos:station:USF.COMPS:C13:1,2013-12-07T05:35:00Z,26.0630,-83.0730,1019.57,1111122 
COMPS,ioos:station:USF.COMPS:C13:1,2013-12-07T06:05:00Z,26.0630,-83.0730,1019.53,1111122 
COMPS,ioos:station:USF.COMPS:C13:1,2013-12-07T06:35:00Z,26.0630,-83.0730,1019.47,1111122 
COMPS,ioos:station:USF.COMPS:C13:1,2013-12-07T07:05:00Z,26.0630,-83.0730,1019.22,1111122 
COMPS,ioos:station:USF.COMPS:C13:1,2013-12-07T07:35:00Z,26.0630,-83.0730,1019.16,1111122 
COMPS,ioos:station:USF.COMPS:C13:1,2013-12-07T08:05:00Z,26.0630,-83.0730,1018.99,1111122 
COMPS,ioos:station:USF.COMPS:C13:1,2013-12-07T08:35:00Z,26.0630,-83.0730,1018.89,1111122 
COMPS,ioos:station:USF.COMPS:C13:1,2013-12-07T09:05:00Z,26.0630,-83.0730,1019.07,1111122 
COMPS,ioos:station:USF.COMPS:C13:1,2013-12-07T09:35:00Z,26.0630,-83.0730,1019.13,1111122 
COMPS,ioos:station:USF.COMPS:C13:1,2013-12-07T10:05:00Z,26.0630,-83.0730,1019.12,1111122 
COMPS,ioos:station:USF.COMPS:C13:1,2013-12-07T10:35:00Z,26.0630,-83.0730,1019.13,1111122 
COMPS,ioos:station:USF.COMPS:C13:1,2013-12-07T11:05:00Z,26.0630,-83.0730,1019.57,1111122 
COMPS,ioos:station:USF.COMPS:C13:1,2013-12-07T11:35:00Z,26.0630,-83.0730,1019.87,1111122 
COMPS,ioos:station:USF.COMPS:C13:1,2013-12-12T17:05:00Z,26.0630,-83.0730,1022.08,1111122 
COMPS,ioos:station:USF.COMPS:C13:1,2013-12-12T17:35:00Z,26.0630,-83.0730,1021.44,1111122 
COMPS,ioos:station:USF.COMPS:C13:1,2013-12-12T18:05:00Z,26.0630,-83.0730,1020.93,1111122 
COMPS,ioos:station:USF.COMPS:C13:1,2013-12-12T18:35:00Z,26.0630,-83.0730,1020.53,1111122 
COMPS,ioos:station:USF.COMPS:C13:1,2013-12-12T19:05:00Z,26.0630,-83.0730,1020.38,1111122 
COMPS,ioos:station:USF.COMPS:C13:1,2013-12-12T19:35:00Z,26.0630,-83.0730,1020.22,1111122 
COMPS,ioos:station:USF.COMPS:C13:1,2013-12-12T20:05:00Z,26.0630,-83.0730,1019.92,1111122 
COMPS,ioos:station:USF.COMPS:C13:1,2013-12-12T20:35:00Z,26.0630,-83.0730,1019.72,1111122 
COMPS,ioos:station:USF.COMPS:C13:1,2013-12-12T21:05:00Z,26.0630,-83.0730,1019.73,1111122 
COMPS,ioos:station:USF.COMPS:C13:1,2013-12-12T21:35:00Z,26.0630,-83.0730,1019.93,1111122 
COMPS,ioos:station:USF.COMPS:C13:1,2013-12-12T22:05:00Z,26.0630,-83.0730,1020.18,1111122 
COMPS,ioos:station:USF.COMPS:C13:1,2013-12-12T22:35:00Z,26.0630,-83.0730,1020.33,1111122 
COMPS,ioos:station:USF.COMPS:C13:1,2013-12-12T23:05:00Z,26.0630,-83.0730,1020.49,1111122 
COMPS,ioos:station:USF.COMPS:C13:1,2013-12-12T23:35:00Z,26.0630,-83.0730,1020.85,1111122 
COMPS,ioos:station:USF.COMPS:C13:1,2013-12-13T00:05:00Z,26.0630,-83.0730,1020.99,1111122 
COMPS,ioos:station:USF.COMPS:C13:1,2013-12-13T00:35:00Z,26.0630,-83.0730,1021.17,1111122 
COMPS,ioos:station:USF.COMPS:C13:1,2013-12-13T01:05:00Z,26.0630,-83.0730,1021.36,1111122 
COMPS,ioos:station:USF.COMPS:C13:1,2013-12-13T01:35:00Z,26.0630,-83.0730,1021.39,1111122 
COMPS,ioos:station:USF.COMPS:C13:1,2013-12-13T02:05:00Z,26.0630,-83.0730,1021.68,1111122 
COMPS,ioos:station:USF.COMPS:C13:1,2013-12-13T02:35:00Z,26.0630,-83.0730,1021.75,1111122 
COMPS,ioos:station:USF.COMPS:C13:1,2013-12-13T03:05:00Z,26.0630,-83.0730,1021.83,1111122 
COMPS,ioos:station:USF.COMPS:C13:1,2013-12-13T03:35:00Z,26.0630,-83.0730,1021.98,1111122 
COMPS,ioos:station:USF.COMPS:C13:1,2013-12-13T04:05:00Z,26.0630,-83.0730,1022.16,1111122 
COMPS,ioos:station:USF.COMPS:C13:1,2013-12-13T04:35:00Z,26.0630,-83.0730,1022.42,1111122 
COMPS,ioos:station:USF.COMPS:C13:1,2013-12-13T05:05:00Z,26.0630,-83.0730,1021.66,1111122 
COMPS,ioos:station:USF.COMPS:C13:1,2013-12-13T05:35:00Z,26.0630,-83.0730,1021.52,1111122 
COMPS,ioos:station:USF.COMPS:C13:1,2013-12-13T06:05:00Z,26.0630,-83.0730,1021.42,1111122 
COMPS,ioos:station:USF.COMPS:C13:1,2013-12-13T06:35:00Z,26.0630,-83.0730,1021.14,1111122 
COMPS,ioos:station:USF.COMPS:C13:1,2013-12-13T07:05:00Z,26.0630,-83.0730,1020.91,1111122 
COMPS,ioos:station:USF.COMPS:C13:1,2013-12-13T07:35:00Z,26.0630,-83.0730,1020.33,1111122 
COMPS,ioos:station:USF.COMPS:C13:1,2013-12-13T08:05:00Z,26.0630,-83.0730,1020.01,1111122 
COMPS,ioos:station:USF.COMPS:C13:1,2013-12-13T08:35:00Z,26.0630,-83.0730,1019.9,1111122 
COMPS,ioos:station:USF.COMPS:C13:1,2013-12-13T09:05:00Z,26.0630,-83.0730,1019.6,1111122 
COMPS,ioos:station:USF.COMPS:C13:1,2013-12-13T09:35:00Z,26.0630,-83.0730,1019.31,1111122 
COMPS,ioos:station:USF.COMPS:C13:1,2013-12-13T10:05:00Z,26.0630,-83.0730,1019.13,1111122 
COMPS,ioos:station:USF.COMPS:C13:1,2013-12-13T10:35:00Z,26.0630,-83.0730,1019.27,1111122 
COMPS,ioos:station:USF.COMPS:C13:1,2013-12-13T11:05:00Z,26.0630,-83.0730,1019.51,1111122 
COMPS,ioos:station:USF.COMPS:C13:1,2013-12-13T11:35:00Z,26.0630,-83.0730,1019.73,1111122 
COMPS,ioos:station:USF.COMPS:C13:1,2013-12-13T12:05:00Z,26.0630,-83.0730,1019.85,1111122 
COMPS,ioos:station:USF.COMPS:C13:1,2013-12-13T12:35:00Z,26.0630,-83.0730,1020.03,1111122 
COMPS,ioos:station:USF.COMPS:C13:1,2013-12-13T13:05:00Z,26.0630,-83.0730,1020.36,1111122 
COMPS,ioos:station:USF.COMPS:C13:1,2013-12-13T13:35:00Z,26.0630,-83.0730,1020.38,1111122 
COMPS,ioos:station:USF.COMPS:C13:1,2013-12-13T14:05:00Z,26.0630,-83.0730,1020.63,1111122 
COMPS,ioos:station:USF.COMPS:C13:1,2013-12-13T14:35:00Z,26.0630,-83.0730,1021.19,1111122 
COMPS,ioos:station:USF.COMPS:C13:1,2013-12-13T15:05:00Z,26.0630,-83.0730,1021.36,1111122 
COMPS,ioos:station:USF.COMPS:C13:1,2013-12-13T15:35:00Z,26.0630,-83.0730,1021.32,1111122 
COMPS,ioos:station:USF.COMPS:C13:1,2013-12-13T16:05:00Z,26.0630,-83.0730,1021.02,1111122 
COMPS,ioos:station:USF.COMPS:C13:1,2013-12-13T16:35:00Z,26.0630,-83.0730,1020.76,1111122 
COMPS,ioos:station:USF.COMPS:C13:1,2013-12-13T17:05:00Z,26.0630,-83.0730,1020.26,1111122 
COMPS,ioos:station:USF.COMPS:C13:1,2013-12-13T17:35:00Z,26.0630,-83.0730,1019.66,1111122 
COMPS,ioos:station:USF.COMPS:C13:1,2013-12-13T18:05:00Z,26.0630,-83.0730,1019.08,1111122 
COMPS,ioos:station:USF.COMPS:C13:1,2013-12-13T18:35:00Z,26.0630,-83.0730,1018.68,1111122 
COMPS,ioos:station:USF.COMPS:C13:1,2013-12-13T19:05:00Z,26.0630,-83.0730,1018.27,1111122 
COMPS,ioos:station:USF.COMPS:C13:1,2013-12-13T19:35:00Z,26.0630,-83.0730,1017.95,1111122 
COMPS,ioos:station:USF.COMPS:C13:1,2013-12-13T20:05:00Z,26.0630,-83.0730,1017.47,1111122 
COMPS,ioos:station:USF.COMPS:C13:1,2013-12-13T20:35:00Z,26.0630,-83.0730,1017.36,1111122 
COMPS,ioos:station:USF.COMPS:C13:1,2013-12-13T21:05:00Z,26.0630,-83.0730,1017.42,1111122 
COMPS,ioos:station:USF.COMPS:C13:1,2013-12-13T21:35:00Z,26.0630,-83.0730,1017.44,1111122 
COMPS,ioos:station:USF.COMPS:C13:1,2013-12-13T22:05:00Z,26.0630,-83.0730,1017.24,1111122 
COMPS,ioos:station:USF.COMPS:C13:1,2013-12-13T22:35:00Z,26.0630,-83.0730,1016.9,1111122 
COMPS,ioos:station:USF.COMPS:C13:1,2013-12-13T23:05:00Z,26.0630,-83.0730,1017.09,1111122 
COMPS,ioos:station:USF.COMPS:C13:1,2013-12-13T23:35:00Z,26.0630,-83.0730,1016.96,1111122 
COMPS,ioos:station:USF.COMPS:C13:1,2013-12-14T00:05:00Z,26.0630,-83.0730,1016.71,1111122 
COMPS,ioos:station:USF.COMPS:C13:1,2013-12-14T00:35:00Z,26.0630,-83.0730,1017.03,1111122 
COMPS,ioos:station:USF.COMPS:C13:1,2013-12-14T01:05:00Z,26.0630,-83.0730,1017.03,1111122 
COMPS,ioos:station:USF.COMPS:C13:1,2013-12-14T01:35:00Z,26.0630,-83.0730,1017.17,1111122 
COMPS,ioos:station:USF.COMPS:C13:1,2013-12-14T02:05:00Z,26.0630,-83.0730,1017.34,1111122 
COMPS,ioos:station:USF.COMPS:C13:1,2013-12-14T02:35:00Z,26.0630,-83.0730,1017.73,1111122 
COMPS,ioos:station:USF.COMPS:C13:1,2013-12-14T03:05:00Z,26.0630,-83.0730,1017.56,1111122 
COMPS,ioos:station:USF.COMPS:C13:1,2013-12-14T03:35:00Z,26.0630,-83.0730,1017.37,1111122 
COMPS,ioos:station:USF.COMPS:C13:1,2013-12-14T04:05:00Z,26.0630,-83.0730,1017.23,1111122 
COMPS,ioos:station:USF.COMPS:C13:1,2013-12-14T04:35:00Z,26.0630,-83.0730,1016.99,1111122 
COMPS,ioos:station:USF.COMPS:C13:1,2013-12-14T05:05:00Z,26.0630,-83.0730,1016.71,1111122 
COMPS,ioos:station:USF.COMPS:C13:1,2013-12-14T05:35:00Z,26.0630,-83.0730,1016.49,1111122 
COMPS,ioos:station:USF.COMPS:C13:1,2013-12-14T06:05:00Z,26.0630,-83.0730,1016.36,1111122 
COMPS,ioos:station:USF.COMPS:C13:1,2013-12-14T06:35:00Z,26.0630,-83.0730,1016.07,1111122 
COMPS,ioos:station:USF.COMPS:C13:1,2013-12-14T07:05:00Z,26.0630,-83.0730,1015.68,1111122 
COMPS,ioos:station:USF.COMPS:C13:1,2013-12-14T07:35:00Z,26.0630,-83.0730,1015.6,1111122 
COMPS,ioos:station:USF.COMPS:C13:1,2013-12-14T08:05:00Z,26.0630,-83.0730,1015.5,1111122 
COMPS,ioos:station:USF.COMPS:C13:1,2013-12-14T08:35:00Z,26.0630,-83.0730,1015.04,1111122 
COMPS,ioos:station:USF.COMPS:C13:1,2013-12-14T09:05:00Z,26.0630,-83.0730,1015.14,1111122 
COMPS,ioos:station:USF.COMPS:C13:1,2013-12-14T09:35:00Z,26.0630,-83.0730,1015.07,1111122 
COMPS,ioos:station:USF.COMPS:C13:1,2013-12-14T10:05:00Z,26.0630,-83.0730,1015.04,1111122 
COMPS,ioos:station:USF.COMPS:C13:1,2013-12-14T10:35:00Z,26.0630,-83.0730,1015.04,1111122 
COMPS,ioos:station:USF.COMPS:C13:1,2013-12-14T11:05:00Z,26.0630,-83.0730,1015.08,1111122 
COMPS,ioos:station:USF.COMPS:C13:1,2013-12-14T11:35:00Z,26.0630,-83.0730,1015.06,1111122 
COMPS,ioos:station:USF.COMPS:C13:1,2013-12-14T12:05:00Z,26.0630,-83.0730,1015.06,1111122 
COMPS,ioos:station:USF.COMPS:C13:1,2013-12-14T12:35:00Z,26.0630,-83.0730,1015.19,1111122 
COMPS,ioos:station:USF.COMPS:C13:1,2013-12-14T13:05:00Z,26.0630,-83.0730,1015.58,1111122 
COMPS,ioos:station:USF.COMPS:C13:1,2013-12-14T13:35:00Z,26.0630,-83.0730,1015.68,1111122 
COMPS,ioos:station:USF.COMPS:C13:1,2013-12-14T14:05:00Z,26.0630,-83.0730,1015.98,1111122 
COMPS,ioos:station:USF.COMPS:C13:1,2013-12-14T14:35:00Z,26.0630,-83.0730,1016.39,1111122 
COMPS,ioos:station:USF.COMPS:C13:1,2013-12-14T15:05:00Z,26.0630,-83.0730,1016.23,1111122 
COMPS,ioos:station:USF.COMPS:C13:1,2013-12-14T15:35:00Z,26.0630,-83.0730,1016.21,1111122 
COMPS,ioos:station:USF.COMPS:C13:1,2013-12-14T16:05:00Z,26.0630,-83.0730,1015.84,1111122 
COMPS,ioos:station:USF.COMPS:C13:1,2013-12-14T16:35:00Z,26.0630,-83.0730,1015.69,1111122 
COMPS,ioos:station:USF.COMPS:C13:1,2013-12-14T17:05:00Z,26.0630,-83.0730,1015.19,1111122 
COMPS,ioos:station:USF.COMPS:C13:1,2013-12-14T17:35:00Z,26.0630,-83.0730,1014.65,1111122 
COMPS,ioos:station:USF.COMPS:C13:1,2013-12-14T18:05:00Z,26.0630,-83.0730,1013.94,1111122 
COMPS,ioos:station:USF.COMPS:C13:1,2013-12-14T18:35:00Z,26.0630,-83.0730,1013.6,1111122 
COMPS,ioos:station:USF.COMPS:C13:1,2013-12-14T19:05:00Z,26.0630,-83.0730,1013.56,1111122 
COMPS,ioos:station:USF.COMPS:C13:1,2013-12-14T19:35:00Z,26.0630,-83.0730,1013.55,1111122 
COMPS,ioos:station:USF.COMPS:C13:1,2013-12-14T20:05:00Z,26.0630,-83.0730,1013.23,1111122 
COMPS,ioos:station:USF.COMPS:C13:1,2013-12-14T20:35:00Z,26.0630,-83.0730,1013.23,1111122 
COMPS,ioos:station:USF.COMPS:C13:1,2013-12-14T21:05:00Z,26.0630,-83.0730,1013.21,1111122 
COMPS,ioos:station:USF.COMPS:C13:1,2013-12-14T21:35:00Z,26.0630,-83.0730,1013.24,1111122 
COMPS,ioos:station:USF.COMPS:C13:1,2013-12-14T22:05:00Z,26.0630,-83.0730,1013.33,1111122 
COMPS,ioos:station:USF.COMPS:C13:1,2013-12-14T22:35:00Z,26.0630,-83.0730,1013.59,1111122 
COMPS,ioos:station:USF.COMPS:C13:1,2013-12-14T23:05:00Z,26.0630,-83.0730,1013.7,1111122 
COMPS,ioos:station:USF.COMPS:C13:1,2013-12-14T23:35:00Z,26.0630,-83.0730,1013.72,1111122 
COMPS,ioos:station:USF.COMPS:C13:1,2013-12-15T00:05:00Z,26.0630,-83.0730,1013.84,1111122 
COMPS,ioos:station:USF.COMPS:C13:1,2013-12-15T00:35:00Z,26.0630,-83.0730,1014.08,1111122 
COMPS,ioos:station:USF.COMPS:C13:1,2013-12-15T01:05:00Z,26.0630,-83.0730,1014.21,1111122 
COMPS,ioos:station:USF.COMPS:C13:1,2013-12-15T01:35:00Z,26.0630,-83.0730,1014.29,1111122 
COMPS,ioos:station:USF.COMPS:C13:1,2013-12-15T02:05:00Z,26.0630,-83.0730,1014.23,1111122 
COMPS,ioos:station:USF.COMPS:C13:1,2013-12-15T02:35:00Z,26.0630,-83.0730,1014.19,1111122 
COMPS,ioos:station:USF.COMPS:C13:1,2013-12-15T03:05:00Z,26.0630,-83.0730,1014.09,1111122 
COMPS,ioos:station:USF.COMPS:C13:1,2013-12-15T03:35:00Z,26.0630,-83.0730,1014.26,1111122 
COMPS,ioos:station:USF.COMPS:C13:1,2013-12-15T04:05:00Z,26.0630,-83.0730,1014.23,1111122 
COMPS,ioos:station:USF.COMPS:C13:1,2013-12-15T04:35:00Z,26.0630,-83.0730,1014.04,1111122 
COMPS,ioos:station:USF.COMPS:C13:1,2013-12-15T05:05:00Z,26.0630,-83.0730,1013.83,1111122 
COMPS,ioos:station:USF.COMPS:C13:1,2013-12-15T05:35:00Z,26.0630,-83.0730,1013.66,1111122 
COMPS,ioos:station:USF.COMPS:C13:1,2013-12-15T06:05:00Z,26.0630,-83.0730,1013.55,1111122 
COMPS,ioos:station:USF.COMPS:C13:1,2013-12-15T06:35:00Z,26.0630,-83.0730,1013.35,1111122 
COMPS,ioos:station:USF.COMPS:C13:1,2013-12-15T07:05:00Z,26.0630,-83.0730,1013.1,1111122 
COMPS,ioos:station:USF.COMPS:C13:1,2013-12-15T07:35:00Z,26.0630,-83.0730,1012.68,1111122 
COMPS,ioos:station:USF.COMPS:C13:1,2013-12-15T08:05:00Z,26.0630,-83.0730,1012.41,1111122 
COMPS,ioos:station:USF.COMPS:C13:1,2013-12-15T08:35:00Z,26.0630,-83.0730,1011.96,1111122 
COMPS,ioos:station:USF.COMPS:C13:1,2013-12-15T09:05:00Z,26.0630,-83.0730,1012.4,1111122 
COMPS,ioos:station:USF.COMPS:C13:1,2013-12-15T09:35:00Z,26.0630,-83.0730,1012.45,1111122 
COMPS,ioos:station:USF.COMPS:C13:1,2013-12-15T10:05:00Z,26.0630,-83.0730,1012.33,1111122 
COMPS,ioos:station:USF.COMPS:C13:1,2013-12-15T10:35:00Z,26.0630,-83.0730,1012.32,1111122 
COMPS,ioos:station:USF.COMPS:C13:1,2013-12-15T11:05:00Z,26.0630,-83.0730,1012.94,1111122 
COMPS,ioos:station:USF.COMPS:C13:1,2013-12-15T11:35:00Z,26.0630,-83.0730,1013.17,1111122 
COMPS,ioos:station:USF.COMPS:C13:1,2013-12-15T12:05:00Z,26.0630,-83.0730,1013.55,1111122 
COMPS,ioos:station:USF.COMPS:C13:1,2013-12-15T12:35:00Z,26.0630,-83.0730,1013.79,1111122 
COMPS,ioos:station:USF.COMPS:C13:1,2013-12-15T13:05:00Z,26.0630,-83.0730,1013.7,1111122 
COMPS,ioos:station:USF.COMPS:C13:1,2013-12-15T13:35:00Z,26.0630,-83.0730,1014.39,1111122 
COMPS,ioos:station:USF.COMPS:C13:1,2013-12-15T14:05:00Z,26.0630,-83.0730,1014.55,1111122 
COMPS,ioos:station:USF.COMPS:C13:1,2013-12-15T14:35:00Z,26.0630,-83.0730,1014.95,1111122 
COMPS,ioos:station:USF.COMPS:C13:1,2013-12-18T18:05:00Z,26.0630,-83.0730,1022.2,1111122 
COMPS,ioos:station:USF.COMPS:C13:1,2013-12-18T18:35:00Z,26.0630,-83.0730,1021.7,1111122 
COMPS,ioos:station:USF.COMPS:C13:1,2013-12-18T19:05:00Z,26.0630,-83.0730,1021.25,1111122 
COMPS,ioos:station:USF.COMPS:C13:1,2013-12-18T19:35:00Z,26.0630,-83.0730,1021.06,1111122 
COMPS,ioos:station:USF.COMPS:C13:1,2013-12-18T20:05:00Z,26.0630,-83.0730,1020.97,1111122 
COMPS,ioos:station:USF.COMPS:C13:1,2013-12-18T20:35:00Z,26.0630,-83.0730,1020.95,1111122 
COMPS,ioos:station:USF.COMPS:C13:1,2013-12-18T21:05:00Z,26.0630,-83.0730,1020.88,1111122 
COMPS,ioos:station:USF.COMPS:C13:1,2013-12-18T21:35:00Z,26.0630,-83.0730,1020.89,1111122 
COMPS,ioos:station:USF.COMPS:C13:1,2013-12-18T22:05:00Z,26.0630,-83.0730,1021.03,1111122 
COMPS,ioos:station:USF.COMPS:C13:1,2013-12-18T22:35:00Z,26.0630,-83.0730,1021.03,1111122 
COMPS,ioos:station:USF.COMPS:C13:1,2013-12-18T23:05:00Z,26.0630,-83.0730,1021.19,1111122 
COMPS,ioos:station:USF.COMPS:C13:1,2013-12-18T23:35:00Z,26.0630,-83.0730,1021.28,1111122 
COMPS,ioos:station:USF.COMPS:C13:1,2013-12-19T00:05:00Z,26.0630,-83.0730,1021.49,1111122 
COMPS,ioos:station:USF.COMPS:C13:1,2013-12-19T00:35:00Z,26.0630,-83.0730,1021.6,1111122 
COMPS,ioos:station:USF.COMPS:C13:1,2013-12-19T01:05:00Z,26.0630,-83.0730,1021.82,1111122 
COMPS,ioos:station:USF.COMPS:C13:1,2013-12-19T01:35:00Z,26.0630,-83.0730,1021.94,1111122 
COMPS,ioos:station:USF.COMPS:C13:1,2013-12-19T02:05:00Z,26.0630,-83.0730,1022.28,1111122 
COMPS,ioos:station:USF.COMPS:C13:1,2013-12-19T02:35:00Z,26.0630,-83.0730,1022.39,1111122 
COMPS,ioos:station:USF.COMPS:C13:1,2013-12-19T03:05:00Z,26.0630,-83.0730,1022.4,1111122 
COMPS,ioos:station:USF.COMPS:C13:1,2013-12-19T03:35:00Z,26.0630,-83.0730,1022.39,1111122 
COMPS,ioos:station:USF.COMPS:C13:1,2013-12-19T04:05:00Z,26.0630,-83.0730,1022.39,1111122 
COMPS,ioos:station:USF.COMPS:C13:1,2013-12-19T04:35:00Z,26.0630,-83.0730,1022.36,1111122 
COMPS,ioos:station:USF.COMPS:C13:1,2013-12-19T05:05:00Z,26.0630,-83.0730,1022.09,1111122 
COMPS,ioos:station:USF.COMPS:C13:1,2013-12-19T05:35:00Z,26.0630,-83.0730,1021.99,1111122 
COMPS,ioos:station:USF.COMPS:C13:1,2013-12-19T06:05:00Z,26.0630,-83.0730,1021.89,1111122 
COMPS,ioos:station:USF.COMPS:C13:1,2013-12-19T06:35:00Z,26.0630,-83.0730,1021.64,1111122 
COMPS,ioos:station:USF.COMPS:C13:1,2013-12-19T07:05:00Z,26.0630,-83.0730,1021.49,1111122 
COMPS,ioos:station:USF.COMPS:C13:1,2013-12-19T07:35:00Z,26.0630,-83.0730,1021.4,1111122 
COMPS,ioos:station:USF.COMPS:C13:1,2013-12-19T08:05:00Z,26.0630,-83.0730,1021.02,1111122 
COMPS,ioos:station:USF.COMPS:C13:1,2013-12-19T08:35:00Z,26.0630,-83.0730,1021.04,1111122 
COMPS,ioos:station:USF.COMPS:C13:1,2013-12-19T09:05:00Z,26.0630,-83.0730,1021.06,1111122 
COMPS,ioos:station:USF.COMPS:C13:1,2013-12-19T09:35:00Z,26.0630,-83.0730,1020.86,1111122 
COMPS,ioos:station:USF.COMPS:C13:1,2013-12-19T10:05:00Z,26.0630,-83.0730,1020.82,1111122 
COMPS,ioos:station:USF.COMPS:C13:1,2013-12-19T10:35:00Z,26.0630,-83.0730,1020.67,1111122 
COMPS,ioos:station:USF.COMPS:C13:1,2013-12-19T11:05:00Z,26.0630,-83.0730,1020.85,1111122 
COMPS,ioos:station:USF.COMPS:C13:1,2013-12-19T11:35:00Z,26.0630,-83.0730,1021.04,1111122 